MIDAS 5 DEB, 274

Orbit data source: Space-Track

MIDAS 5 DEB, 274 is space debris in LEO originally from a launch on Mon, 09 Apr 1962 UTC launched from the Air Force Western Test Range (AFWTR). Debris objects in space refer to the collection of defunct objects orbiting the Earth. Examples of debris include non-operational satellites, rocket bodies, and fragments generated from explosions, collisions, or faulty payload assembly.

Loading next visibility...
Identifier
274, 1962-010D
Orbit
LEO
Last TLE update
3 days ago
Origin
Manufacturer
Unknown
Mission
Spacecraft
Bus & Motor
Unknown
Mass
~10 kg wet, ~10 kg dry
Launch date (UTC)
1962-04-09 (63 years ago)
Launch vehicle
Unknown
Launch site
Air Force Western Test Range (AFWTR)
Object type
Payload
Rocket body
Debris
Shape & HBR
Unknown
Radar Cross Section
Medium (>0.1 m² and <1 m²)

Expand to show TLE details & history

TLE from 3 days ago
0 MIDAS 5 DEB
1 00274U 62010D   25187.48133357  .00000034  00000-0  63670-2 0  9990
2 00274  86.6651  23.5868 0350751 231.4683 125.4290  9.39385825168322
Epoch: 2025-07-06T11:33Z
TLE epoch observation values (Epoch: 2025-07-06T11:33:07.22Z)
Latitude
0.00002°
Longitude
-74.39769°
Altitude
3,312.575 km
Speed
6.346 km/s
True Right ascension
01h 34m 20s
True Declination
0° 00' 00"
Sunlit
Object was in daylight at epoch
Visualization orbit readout
Latitude
77.58637°
Longitude
89.91002°
Altitude
3,311.038 km
Speed
6.356 km/s
Apparent Right ascension
08h 24m 00s
Apparent Declination
44° 11' 43"
Sunlit
Object is in daylight
Visualization observer readout
Local Sidereal Time
18:55:42
Azimuth
344.337° N
Elevation
-3.571°
Doppler factor
1
Orbital elements
Apogee altitude
3,440.231 km
Perigee altitude
2,774.81 km
Semi-major axis
9,485.657 km
Eccentricity
0.03508
Inclination
86.6651°
RAAN
23.5868°
Arg. of periapsis
231.4683°
True anomaly
Unknown
Mean anomaly
125.429°
Eccentric anomaly
Unknown
Mean motion
2.34932 °/min
Orbital period
153.24 mins
BSTAR
0.006367
Loading maneuver chart data...
Loading SW <> Apogee altitude chart data...
Loading historical data...
Loading historical data...
Loading historical data...
Loading historical data...
Loading historical data...
Loading historical data...
Loading historical data...

MIDAS 5 DEB Visibility forecast

Observer location: undefined°, undefined°

Span
Click to sort rows by Start time (UTC) header in descending order
Start Az.
Max El. time (UTC)
Max El. Az.
Max El.
End time (UTC)
End Az.
28 mins2025-07-09 11:13:19.245Z121.956° SE2025-07-09 11:27:19.245Z67.02° ENE28.48°2025-07-09 11:41:19.245Z14.097° NNE
34 mins2025-07-09 13:42:19.245Z188.263° SSW2025-07-09 13:58:19.245Z272.278° WNW44.181°2025-07-09 14:16:19.245Z1.173° NNE
22 mins2025-07-09 16:26:19.245Z266.183° W2025-07-09 16:36:19.245Z303.226° NW18.553°2025-07-09 16:48:19.245Z346.718° N
21 mins2025-07-09 22:08:19.245Z16.269° NNE2025-07-09 22:18:19.245Z55.64° ENE19.337°2025-07-09 22:29:19.245Z101.22° ESE
31 mins2025-07-10 00:40:19.245Z358.434° N2025-07-10 00:56:19.245Z93.65° ESE44.761°2025-07-10 01:11:19.245Z176.747° S
22 mins2025-07-10 03:16:19.245Z339.376° N2025-07-10 03:27:19.245Z293.343° NW24.266°2025-07-10 03:38:19.245Z246.516° WSW
|